GFSGBSN_925_thetae_000.txt.gz
Theta_e
311 311 310 309 307 305 304 303 303 302 302 302 302 302 303 304 304 304 304 305 306 306 306 308 316 311 317 324 320 320 321 322 322 323 323 322 326 330 330 329 330 339 342 342 343 340 341
310 311 310 309 309 308 306 304 303 303 302 302 302 302 302 303 304 304 304 305 305 306 307 308 315 310 319 316 318 320 323 324 323 323 321 321 325 328 327 326 329 340 343 343 342 341 342
309 308 309 308 307 306 307 306 305 303 303 303 302 302 302 303 304 304 305 305 306 307 308 311 313 318 324 316 321 324 325 324 324 323 319 322 324 326 325 325 328 339 342 339 343 343 347
307 308 308 307 305 306 306 306 306 305 304 303 302 302 302 303 303 304 304 306 306 308 311 316 312 323 319 322 327 321 321 323 322 323 322 321 324 325 324 325 327 333 333 336 340 344 345
307 306 306 306 305 306 306 306 306 306 305 305 302 302 302 302 303 304 305 306 308 316 322 314 321 324 326 329 329 325 324 323 321 322 322 322 323 322 325 328 325 329 333 338 339 340 345
306 306 307 307 305 305 305 306 306 306 305 305 303 302 302 302 303 303 305 307 312 326 321 325 326 325 323 330 331 328 326 326 319 319 320 320 320 327 325 324 327 332 336 338 339 337 341
306 306 307 306 305 305 305 305 305 305 305 304 303 303 302 302 302 303 305 308 313 321 330 328 326 326 326 327 331 326 327 324 320 318 318 320 322 324 328 326 327 330 336 339 338 334 349
306 305 305 305 305 305 305 305 305 305 304 303 303 303 303 302 303 303 309 310 313 318 319 323 328 328 328 328 332 328 325 324 318 317 319 320 323 326 329 330 328 328 333 339 339 335 337
305 305 305 304 305 305 305 305 305 305 304 303 304 303 303 302 303 313 308 312 315 315 319 321 322 324 324 325 329 328 321 322 319 319 321 320 323 329 331 331 331 327 336 336 339 339 339
305 305 304 304 305 305 305 305 305 305 304 303 304 304 303 302 308 306 309 313 315 314 319 322 323 323 325 326 326 327 323 323 319 319 320 321 323 328 332 332 329 325 327 337 340 341 344
304 304 304 304 305 306 305 304 305 305 303 303 304 303 303 304 305 310 309 312 310 318 330 327 326 326 323 324 325 322 323 320 321 320 319 321 324 325 328 330 326 326 325 326 341 340 338
304 304 304 305 305 305 303 304 304 304 304 304 304 303 305 305 306 305 308 306 316 321 330 330 325 324 324 324 325 323 322 320 321 321 321 321 325 325 327 328 326 327 327 323 326 327 336
305 304 304 304 305 303 304 303 304 305 304 304 303 302 305 306 307 309 309 310 320 324 324 327 322 324 322 324 325 324 321 320 320 320 321 323 324 325 326 325 324 326 321 323 325 325 326
304 304 303 304 303 304 305 305 305 305 305 304 303 303 305 306 306 307 308 311 325 325 322 322 323 323 324 324 324 326 321 320 318 320 319 321 323 325 324 323 323 322 321 324 329 333 329
304 304 303 303 303 304 304 304 304 304 305 304 303 305 309 309 310 310 310 313 318 321 324 324 322 322 324 323 325 325 321 321 321 318 321 320 322 324 324 325 323 324 325 324 327 328 330
304 304 303 303 303 304 304 304 303 304 305 303 306 309 311 313 312 310 311 312 315 320 321 321 322 322 323 322 323 324 323 321 322 320 317 319 321 322 325 324 324 324 324 327 323 329 331
304 304 303 303 302 303 304 304 303 304 306 303 307 309 312 315 313 309 309 311 314 315 316 320 321 321 321 322 323 323 325 323 323 322 317 319 320 323 325 324 324 328 327 324 323 325 328
303 303 303 303 302 301 304 304 303 303 306 305 305 308 314 315 316 313 313 314 314 313 315 316 319 320 321 323 322 325 324 323 324 323 321 318 318 322 322 324 323 326 325 324 325 327 325
303 303 303 303 302 304 303 303 302 302 306 306 303 306 309 311 317 317 317 319 317 315 314 316 319 320 321 322 325 327 328 328 323 324 323 321 318 323 323 323 324 326 326 326 322 322 327
304 304 303 302 303 304 303 302 302 302 305 307 304 312 311 310 309 317 316 319 321 322 320 320 320 320 322 323 325 326 326 328 326 324 333 326 318 321 324 324 325 326 327 327 324 326 326
304 304 303 304 302 303 304 303 302 301 305 307 306 313 310 312 312 308 313 319 323 324 324 323 321 327 328 325 326 331 335 334 332 330 331 321 320 324 323 326 328 327 327 327 326 325 328
303 303 303 303 303 302 303 303 302 302 305 307 311 311 309 308 307 312 312 320 318 319 323 324 329 329 328 330 334 335 333 332 332 329 325 319 323 324 325 326 326 327 329 329 330 328 330
303 303 302 302 302 303 302 302 302 303 304 307 307 309 308 308 309 312 314 316 315 315 325 329 328 328 330 328 326 326 327 327 330 330 328 322 323 324 325 327 329 330 331 329 330 333 328
303 302 302 302 302 302 302 303 303 303 303 305 305 307 309 311 310 313 312 315 315 316 318 328 327 328 329 324 323 327 327 327 331 331 329 326 323 322 325 325 329 327 330 333 336 336 334
303 303 302 301 303 302 302 303 303 303 303 304 305 307 308 309 311 312 313 313 312 315 318 321 322 323 320 323 325 328 331 329 332 331 332 332 334 336 326 324 326 332 333 335 335 336 336
303 303 303 303 303 301 302 303 303 303 303 303 304 306 307 308 309 310 311 311 311 311 318 320 317 315 322 321 327 330 333 334 335 332 331 330 332 337 338 332 330 331 336 334 332 337 334
302 302 302 303 303 303 301 302 304 304 304 303 304 305 307 309 307 308 309 309 307 308 316 317 313 318 323 324 324 326 326 327 337 335 336 334 336 336 337 337 333 333 337 334 335 335 335
302 302 302 303 302 303 302 303 302 304 304 304 304 305 307 310 309 308 309 310 309 309 312 313 317 321 329 331 329 324 324 325 332 335 337 343 342 340 337 335 336 335 336 342 335 333 332
302 302 301 302 302 302 303 303 303 304 304 304 305 305 306 305 308 308 308 308 308 309 307 305 310 318 322 323 327 328 333 330 330 340 336 343 341 346 344 342 335 333 332 331 330 330 331

GFSGBSN_925_thetae_003.txt.gz
Theta_e
310 309 310 309 309 308 308 308 309 306 303 303 302 302 302 303 303 304 304 304 304 305 306 307 308 313 315 319 317 321 320 319 322 324 323 321 324 328 331 328 327 330 340 339 340 339 341
309 309 310 309 308 308 307 307 307 306 305 304 303 302 302 303 303 303 304 305 305 305 306 307 309 311 319 316 319 319 322 324 322 325 322 320 321 326 329 326 326 337 340 340 337 338 340
309 309 309 309 308 307 307 308 307 305 305 304 303 303 302 303 303 303 304 305 306 306 308 310 312 320 323 318 321 321 325 325 324 322 318 321 321 324 325 326 327 339 339 339 340 341 342
308 308 308 308 307 306 306 306 306 305 305 304 302 302 302 302 302 303 304 305 307 308 315 317 313 322 318 322 325 330 323 321 322 322 322 321 323 323 325 325 332 339 335 344 341 344 344
308 308 308 308 308 305 305 305 305 305 305 304 303 302 302 302 302 302 304 307 307 317 319 315 321 323 324 324 329 328 325 322 321 321 321 321 321 321 323 325 325 329 343 340 342 341 344
308 308 308 308 307 306 305 305 305 305 305 304 302 302 302 302 302 302 304 307 312 326 325 324 326 325 321 324 328 329 326 323 320 317 318 318 318 320 321 323 328 340 334 342 345 345 342
308 307 307 307 307 306 306 305 305 305 305 304 302 302 302 302 302 302 305 309 311 315 327 323 321 324 324 326 326 327 325 321 318 316 317 318 319 321 321 326 325 329 332 342 343 338 346
307 306 307 306 306 306 306 305 304 305 304 304 303 302 302 302 302 304 311 309 313 314 313 316 319 321 324 326 327 324 326 322 317 316 316 318 319 319 323 327 326 326 325 332 336 340 345
306 304 304 304 305 305 305 304 303 304 304 304 304 302 302 302 302 314 305 307 312 309 314 317 319 321 323 325 326 325 322 321 319 316 316 316 318 322 328 329 330 326 328 329 336 340 345
306 304 304 304 304 305 304 303 303 304 305 305 304 302 303 302 305 305 308 310 308 309 317 320 321 320 321 323 325 325 322 321 318 319 317 318 319 325 329 330 328 330 325 329 335 340 346
305 305 305 304 304 305 303 304 305 305 304 304 304 302 304 306 306 308 309 307 308 314 326 322 324 323 321 323 323 324 322 320 322 317 317 318 321 322 327 330 327 329 325 325 332 336 341
305 305 305 304 304 304 303 304 305 303 303 304 304 302 304 305 306 305 305 308 314 318 325 325 325 324 323 323 323 321 321 320 320 318 319 318 321 322 323 325 326 327 325 321 324 330 341
305 305 305 304 303 303 303 303 303 302 301 304 304 302 302 305 307 305 308 309 317 320 320 323 322 321 321 323 323 323 320 319 321 318 319 321 321 322 325 325 324 323 320 322 330 337 341
305 305 304 303 304 303 303 304 304 302 301 303 304 302 304 304 304 307 306 310 322 320 320 319 321 320 323 324 323 323 318 322 318 318 318 319 321 322 322 324 324 321 320 322 324 329 333
305 305 304 304 304 303 301 304 304 302 301 303 303 303 306 307 308 308 308 312 317 320 322 323 320 321 321 321 321 323 320 320 320 316 319 317 319 321 323 323 323 324 321 320 321 325 326
305 305 304 303 303 302 301 303 304 301 301 304 305 306 308 312 310 309 309 310 312 317 319 318 321 321 322 320 320 320 322 321 320 317 317 317 321 320 323 322 322 323 321 324 320 326 330
305 305 303 303 303 302 303 303 303 301 302 304 305 304 307 313 310 306 307 309 310 312 313 316 320 320 319 319 319 320 320 321 321 321 318 315 317 319 322 321 322 326 323 321 321 322 326
304 304 303 303 303 302 303 303 302 301 303 305 302 300 311 310 314 307 308 309 312 312 313 314 315 316 317 318 319 319 319 320 322 322 318 315 316 320 319 321 322 321 323 323 325 325 322
304 304 303 303 303 303 303 303 302 301 302 304 305 301 308 308 313 313 314 317 318 319 317 314 313 316 319 320 318 319 320 322 325 323 321 316 315 318 319 321 322 324 323 321 319 321 327
303 303 304 304 303 303 303 303 302 301 302 305 304 308 307 306 306 311 311 313 317 321 321 322 318 320 321 323 322 323 324 326 327 321 332 323 313 321 322 322 322 325 326 323 323 324 324
303 303 303 304 304 303 303 302 302 302 302 305 304 308 308 310 310 307 309 312 317 319 318 321 322 321 328 327 328 328 328 331 333 333 331 319 319 317 321 321 323 325 326 325 325 324 328
303 303 303 303 302 303 303 302 302 302 302 306 307 308 308 310 306 307 310 312 315 315 316 321 321 329 329 328 330 330 328 329 335 329 327 316 319 321 321 321 322 323 324 327 327 323 326
302 301 302 302 303 303 303 302 302 302 302 304 304 305 306 311 309 310 310 312 314 314 315 316 329 329 331 329 327 325 324 325 330 333 329 318 321 319 323 323 325 326 326 327 329 329 327
303 303 303 303 303 302 301 302 303 302 303 302 302 305 310 313 311 310 312 312 313 312 314 317 319 327 328 321 322 325 324 323 327 332 329 325 319 319 323 325 329 326 330 330 335 336 335
303 303 303 303 304 303 301 303 304 302 302 304 302 304 309 313 311 312 312 311 311 309 315 318 320 318 314 319 325 328 331 330 331 333 332 327 321 329 325 324 327 334 336 334 333 335 334
302 302 302 303 303 302 302 303 303 303 303 304 303 303 305 311 309 309 310 309 308 306 308 317 317 312 315 319 326 330 335 332 333 334 329 328 327 330 329 327 331 333 333 335 331 336 333
302 302 302 302 302 301 300 302 303 304 302 304 302 303 304 310 309 308 308 307 307 308 307 313 311 313 324 324 326 326 328 328 336 336 335 337 334 336 334 336 334 334 334 333 336 333 334
302 301 301 301 301 302 301 302 302 303 303 304 302 302 304 309 307 307 307 308 308 307 308 309 313 319 323 331 331 330 327 330 335 335 336 337 340 344 339 338 339 332 334 337 332 328 330
302 301 301 300 301 301 301 302 301 302 302 303 302 303 304 305 305 306 307 307 307 307 307 307 308 316 318 323 324 326 333 328 329 341 336 340 340 342 338 335 330 331 330 329 328 329 329

GFSGBSN_925_thetae_006.txt.gz
Theta_e
310 310 310 310 309 309 308 309 309 309 308 305 302 302 302 302 302 302 302 303 305 306 306 306 307 310 316 317 316 322 319 320 322 322 322 319 319 322 328 327 327 328 330 337 340 337 341
309 309 310 310 309 308 308 308 308 308 307 305 303 302 302 302 302 302 302 303 304 306 307 307 309 311 318 317 321 318 321 326 324 323 321 319 321 324 328 327 326 327 338 339 337 338 340
309 309 309 309 310 308 308 308 308 307 305 304 303 302 302 302 302 302 303 304 305 306 307 312 313 319 321 317 323 321 321 325 324 323 319 321 321 324 324 327 325 337 339 338 339 340 348
308 308 308 308 308 307 307 308 307 307 305 304 302 301 302 302 302 302 303 305 306 307 318 321 314 320 317 324 322 323 328 321 321 324 322 322 322 320 324 325 333 337 337 342 340 341 345
308 308 308 308 308 307 306 306 306 305 305 305 304 302 301 302 302 302 303 306 307 319 315 315 322 321 323 325 324 328 328 321 319 321 321 320 321 320 322 326 334 333 342 341 344 341 345
308 308 307 308 307 306 306 306 305 303 303 304 304 303 302 301 301 302 304 308 314 324 325 324 325 325 321 323 324 326 325 321 319 316 318 318 315 320 319 329 340 339 342 339 346 341 344
308 307 307 307 307 306 306 305 303 303 303 304 304 302 302 301 301 302 307 311 310 313 322 320 320 323 322 321 324 325 324 320 316 315 315 314 317 318 322 324 333 332 339 343 342 340 343
307 307 307 306 306 306 306 304 305 305 306 304 303 302 302 301 302 304 307 307 311 310 308 311 313 316 319 323 323 322 324 321 319 317 315 317 317 318 321 324 327 334 333 338 335 339 343
307 306 306 306 306 305 305 304 305 306 305 302 302 302 303 301 302 312 303 305 310 307 310 313 314 316 316 318 321 323 321 319 319 318 315 315 318 319 325 326 325 326 325 326 337 342 345
306 305 306 304 305 304 304 304 305 305 302 301 301 302 304 301 303 303 306 309 306 308 314 317 319 319 320 321 322 323 323 321 317 318 315 315 317 321 324 327 326 327 324 326 336 343 344
306 305 305 305 305 304 303 303 304 305 304 301 300 300 304 304 304 306 306 306 307 310 321 320 322 321 319 319 320 322 322 320 322 318 316 318 318 321 326 326 325 327 325 327 335 338 342
306 305 305 305 305 303 304 302 303 305 303 300 300 299 304 304 304 303 306 305 310 315 321 320 324 322 323 322 321 320 322 320 320 319 316 318 318 319 320 325 327 323 320 321 323 330 339
306 305 305 304 305 304 304 301 301 304 302 298 300 299 302 304 305 304 305 306 313 317 317 320 321 319 320 321 322 321 320 319 320 320 319 318 318 321 322 323 324 320 321 324 327 335 337
306 305 304 304 304 304 303 302 302 303 300 298 299 300 302 303 304 305 305 306 317 317 317 317 319 318 320 319 320 322 318 322 318 317 317 316 317 319 320 322 322 321 321 323 326 328 336
305 305 305 304 303 304 302 302 303 302 300 299 300 303 305 307 308 306 303 306 311 317 320 322 318 320 320 319 320 321 319 318 320 315 318 316 317 318 320 321 321 321 321 320 319 321 324
305 305 305 304 304 303 303 303 303 302 300 300 304 303 303 310 310 306 304 305 308 314 317 314 319 319 320 318 318 319 319 319 319 317 315 316 319 317 320 322 321 321 318 323 318 325 329
305 305 304 304 303 303 303 303 302 302 301 301 303 300 306 310 307 304 304 304 308 309 311 312 317 319 318 318 318 318 319 319 320 320 314 314 315 317 319 320 320 321 321 318 318 319 323
304 304 303 303 303 303 303 303 303 302 302 302 302 298 308 308 310 304 306 306 309 311 312 313 315 315 315 316 315 317 318 318 319 318 318 314 316 318 317 318 319 320 319 319 323 321 319
305 304 304 303 302 304 303 303 302 302 302 303 302 302 305 306 312 311 310 314 315 318 317 318 316 313 314 316 319 316 316 318 318 318 319 315 313 318 317 316 320 320 320 317 316 317 322
304 305 304 304 304 304 303 302 302 302 301 303 303 303 304 303 303 308 306 308 313 316 318 318 318 317 317 319 317 318 321 325 325 326 339 328 313 318 321 319 319 322 323 320 319 321 322
304 304 304 304 304 303 303 303 303 302 302 303 304 304 306 310 309 309 306 308 314 316 316 317 319 320 320 320 323 320 320 322 328 331 325 314 318 316 321 318 320 321 323 322 322 321 325
304 303 303 303 303 304 304 302 302 302 302 304 308 308 305 307 308 306 308 309 314 314 313 315 319 321 320 322 324 325 325 326 330 332 328 316 317 315 321 319 320 321 322 324 324 323 323
304 303 304 304 304 304 304 301 301 303 302 302 302 303 306 309 310 309 308 311 312 312 313 313 316 318 325 326 321 323 323 324 329 329 333 323 316 316 321 318 318 319 321 321 323 323 324
303 303 303 303 304 303 303 303 302 302 303 302 301 302 307 308 311 312 311 312 312 312 312 311 311 314 323 313 316 319 321 323 324 326 329 335 319 315 322 321 322 321 324 322 325 331 329
303 303 303 303 302 303 304 302 302 301 302 303 302 301 305 309 309 311 311 310 308 308 308 312 313 316 309 315 322 325 327 329 329 332 332 329 319 321 321 319 323 334 334 333 333 334 333
303 303 303 303 302 302 303 302 302 302 302 303 303 303 301 304 307 308 310 310 310 307 306 309 313 308 314 318 324 327 331 332 335 332 329 329 328 327 323 324 332 331 333 333 332 335 331
303 303 303 302 302 303 302 303 302 302 302 302 303 302 303 306 305 307 308 308 306 308 308 307 308 312 319 322 325 326 326 327 337 337 338 336 337 337 333 333 333 333 332 332 334 331 330
303 303 302 302 301 301 301 302 302 302 301 303 303 302 303 305 304 306 306 307 307 307 309 309 311 319 322 328 329 328 326 329 333 332 335 336 342 343 337 337 338 330 333 333 332 328 330
302 302 302 302 301 301 301 301 301 301 301 302 303 302 303 303 304 304 304 305 306 307 307 307 307 311 320 321 323 325 331 328 331 340 333 339 339 339 335 334 330 329 327 327 328 329 329

GFSGBSN_925_thetae_009.txt.gz
Theta_e
310 310 310 310 310 310 309 310 309 308 309 309 308 302 301 302 302 302 302 303 304 306 306 306 307 308 315 319 321 320 320 322 323 323 322 323 323 323 324 328 329 332 332 337 341 345 347
309 310 309 309 309 309 309 309 309 308 308 308 308 304 301 301 302 302 302 303 304 305 306 307 309 311 318 319 318 319 320 324 326 326 322 322 323 324 326 331 332 330 334 338 342 346 347
309 309 309 309 308 308 308 309 309 307 307 307 308 305 302 301 301 301 302 303 305 306 307 310 318 316 320 320 320 319 320 323 326 325 323 321 322 326 329 330 328 340 343 344 343 345 347
309 308 308 308 308 307 307 307 306 306 306 306 306 304 303 302 301 301 303 304 306 307 313 320 314 321 323 322 323 323 322 324 323 321 321 322 321 322 324 328 338 342 343 346 344 345 348
308 308 308 308 307 306 306 307 305 307 307 307 304 302 301 301 301 301 303 305 309 317 315 316 321 322 327 324 325 326 327 320 319 322 321 321 322 323 324 331 342 341 346 346 347 345 349
308 308 307 308 308 306 306 306 304 306 307 306 301 300 301 301 301 302 304 310 317 323 323 323 325 327 326 326 324 324 325 319 320 321 321 320 321 322 326 333 336 343 346 345 348 346 349
308 307 307 307 307 306 306 306 305 306 306 302 299 299 300 300 301 302 308 310 317 317 320 325 324 326 324 323 322 325 322 321 319 321 323 321 321 321 325 332 336 340 345 346 346 345 347
307 307 307 307 306 306 306 305 305 305 306 303 299 298 299 300 301 307 303 307 310 308 311 311 312 316 318 319 321 323 323 325 322 324 318 320 321 322 325 328 334 342 344 346 344 345 346
307 306 306 306 305 306 304 305 303 303 305 306 300 298 299 300 301 309 304 306 306 306 310 313 313 315 317 317 319 321 323 324 325 326 320 320 320 321 325 327 330 339 343 345 345 344 346
306 306 305 305 305 305 304 304 302 301 303 305 300 298 300 299 302 302 308 308 306 307 318 320 320 321 321 320 321 321 322 325 322 326 321 321 320 320 324 329 330 333 338 342 344 345 348
306 305 305 305 305 305 304 304 303 301 302 301 299 297 299 302 303 307 306 304 306 309 322 321 322 320 322 324 320 322 323 324 326 324 322 323 319 321 323 326 329 333 333 336 341 344 345
305 306 306 305 304 304 304 304 302 302 302 301 298 298 301 304 304 302 304 304 310 320 322 321 325 324 323 323 323 323 323 324 325 325 320 324 320 321 324 327 329 328 331 332 338 340 340
306 306 304 304 304 304 303 303 303 302 302 301 298 298 300 304 306 304 304 308 317 320 319 321 323 321 321 324 324 323 324 325 328 329 328 325 323 321 322 326 329 329 331 334 338 340 337
305 306 305 304 304 303 303 303 303 303 302 300 298 299 301 302 303 304 304 309 316 317 319 319 320 320 320 321 324 322 324 325 327 328 328 328 326 323 323 323 328 329 331 334 337 337 335
305 304 305 304 303 303 302 302 304 303 302 300 298 301 303 305 308 304 307 307 312 316 320 322 321 321 321 321 321 323 324 325 326 326 327 326 326 320 322 324 327 328 330 331 333 328 333
306 305 304 303 303 303 303 302 304 303 302 301 303 303 302 307 309 305 307 307 309 315 320 317 320 321 322 321 320 321 323 324 326 325 327 324 325 321 322 323 324 326 327 329 330 339 336
306 305 306 303 303 303 302 303 303 302 302 301 302 303 306 309 305 308 308 306 308 311 316 315 317 320 322 319 319 320 321 322 321 323 325 326 323 321 321 322 323 324 326 327 330 331 335
306 305 305 304 304 302 303 303 303 302 301 302 302 301 306 307 313 308 310 309 308 311 311 311 315 318 318 318 317 318 319 322 321 321 322 323 325 326 324 323 322 324 326 328 330 334 330
305 304 304 304 304 303 304 303 302 302 301 303 303 304 302 305 311 313 313 313 314 315 315 316 314 316 316 316 317 319 319 320 320 321 325 321 324 326 325 325 323 323 324 326 328 330 338
305 305 305 305 304 303 303 303 303 303 302 303 304 306 307 308 307 311 314 313 314 315 317 318 318 319 321 323 322 323 321 322 323 321 332 328 330 330 330 328 325 324 323 325 326 329 329
305 305 304 304 304 304 304 303 302 302 302 302 304 307 308 314 313 314 311 310 312 313 316 317 322 321 322 323 323 323 324 323 323 326 333 332 332 330 331 332 327 325 322 324 327 328 331
304 304 304 303 304 304 303 303 302 302 302 303 305 308 306 308 309 312 311 311 313 315 315 316 319 319 320 324 324 324 325 325 328 331 334 324 335 325 326 328 327 325 325 324 325 326 328
303 303 304 304 304 303 303 303 302 302 303 302 302 302 304 305 308 310 311 311 312 312 313 315 315 315 318 320 321 323 324 326 329 333 338 340 333 336 334 325 325 326 326 326 326 327 328
303 303 303 304 304 304 303 302 302 302 303 302 301 301 304 304 306 309 311 311 312 311 312 311 312 313 315 314 318 322 321 324 327 330 331 342 341 330 335 328 327 325 326 326 327 327 329
303 303 303 303 303 303 302 303 302 302 301 302 302 302 303 303 305 306 308 310 311 311 310 310 311 312 313 314 323 330 331 331 331 331 333 337 334 335 333 331 331 329 332 326 325 327 328
304 304 303 303 303 303 303 303 304 302 302 302 302 302 302 302 302 303 308 309 310 311 310 310 310 310 316 323 329 333 332 329 335 337 333 336 338 338 338 336 332 339 337 335 337 332 338
303 304 304 303 303 303 303 303 303 302 302 302 302 302 302 304 302 303 304 307 308 310 310 309 310 312 320 330 330 332 331 331 333 336 338 343 341 340 344 342 334 336 334 335 337 337 337
303 303 303 302 303 303 303 303 302 301 302 303 302 302 303 304 303 302 303 305 308 309 310 308 310 316 324 334 335 332 331 333 336 337 338 339 342 345 344 345 341 331 335 340 339 336 337
303 303 301 301 302 302 302 302 301 301 301 301 302 303 303 304 303 302 303 303 305 305 307 308 309 309 315 323 328 330 338 334 339 338 334 341 339 344 341 341 332 328 331 332 336 336 337

GFSGBSN_925_thetae_015.txt.gz
Theta_e
310 310 310 309 310 309 308 309 309 309 309 309 309 302 300 300 300 301 301 301 303 304 305 305 306 306 318 326 325 327 322 321 330 331 333 331 333 333 337 333 334 335 337 336 336 339 341
310 309 310 309 309 309 308 308 309 308 308 308 303 300 300 299 300 300 301 301 303 304 305 306 306 308 323 323 322 327 324 331 331 331 328 329 331 331 333 332 334 336 336 336 337 339 341
309 309 309 309 309 308 307 308 308 307 304 302 302 300 300 299 300 300 301 302 303 305 307 308 308 317 323 324 322 322 328 328 328 328 330 326 328 328 329 331 332 335 336 339 338 339 342
309 309 309 308 308 307 308 306 307 305 304 302 300 300 300 299 300 300 301 303 305 308 312 314 316 323 325 324 324 323 323 324 326 328 327 326 324 327 329 331 333 334 337 341 339 340 343
309 308 308 309 308 307 306 307 306 305 303 302 301 300 299 300 300 300 301 304 307 318 316 318 327 328 327 325 326 324 323 325 326 326 328 326 326 326 328 329 333 336 338 339 340 340 346
309 309 308 308 307 306 305 306 305 305 304 303 302 300 299 300 300 301 303 309 313 323 324 326 328 331 328 329 327 327 327 327 327 328 327 327 326 327 327 331 335 339 339 340 346 341 346
308 307 308 307 307 305 305 304 304 305 304 303 302 301 300 300 301 302 307 316 324 330 328 330 331 328 327 326 328 327 327 327 327 327 326 325 325 325 328 332 334 337 339 338 341 341 344
308 308 307 306 307 306 305 304 304 304 304 303 303 303 299 299 301 306 311 317 317 313 316 319 321 323 325 326 327 327 328 325 326 328 326 325 325 326 329 331 333 335 338 339 340 340 343
307 307 307 307 306 306 305 305 304 304 303 304 304 304 302 301 302 313 311 316 313 313 317 320 322 322 323 323 324 326 327 328 325 327 326 325 325 326 328 331 333 335 337 338 340 346 345
307 307 306 306 305 305 305 304 303 303 302 304 304 304 303 299 308 309 315 314 312 312 320 323 323 323 323 323 323 324 325 328 328 326 327 326 326 325 326 329 332 335 335 337 338 344 349
307 307 306 305 305 305 303 303 304 303 303 303 304 303 303 301 306 312 311 310 311 315 324 326 325 325 326 326 328 327 325 326 329 328 327 327 326 326 325 327 330 332 335 337 337 342 349
307 308 308 306 305 305 304 303 304 303 302 303 303 303 302 306 309 311 310 310 313 321 325 326 327 327 328 328 328 327 326 326 327 328 328 327 327 326 326 326 329 330 333 336 337 338 344
307 307 308 307 305 305 305 303 303 303 302 302 303 302 303 305 309 311 309 312 317 321 325 326 326 326 327 327 327 327 326 326 327 329 330 328 327 327 326 325 327 329 332 337 340 340 341
308 307 307 308 307 305 305 304 303 302 302 302 302 303 307 308 310 310 309 312 317 322 323 325 325 327 327 327 327 327 327 327 326 328 330 330 329 328 326 325 326 328 331 335 342 341 340
307 308 307 307 306 305 303 303 304 303 303 302 303 307 308 309 311 309 314 313 317 320 324 324 325 326 327 327 326 327 328 327 327 327 330 331 331 329 327 326 325 327 330 332 336 338 340
307 307 306 305 305 305 303 303 304 303 303 303 305 308 309 310 311 311 313 315 317 318 321 321 324 325 327 327 326 327 328 328 327 327 329 330 332 330 327 327 326 325 328 332 338 345 345
306 305 304 305 305 305 304 304 304 303 303 303 307 310 312 312 313 316 316 314 315 316 317 319 321 324 325 326 328 327 326 327 328 327 327 328 331 331 330 328 327 325 327 331 333 337 340
305 305 305 305 305 305 305 305 304 303 303 306 308 312 310 311 314 315 316 317 315 316 317 317 317 321 324 325 325 327 327 327 327 328 328 329 330 333 330 330 328 327 326 328 336 341 337
305 305 305 305 305 305 305 304 304 303 303 305 310 312 309 308 311 311 313 315 316 316 317 317 316 317 320 323 325 326 326 326 326 327 329 329 331 334 334 329 328 328 327 327 329 334 344
305 305 305 305 305 305 305 304 304 303 303 303 309 311 311 311 312 310 311 313 315 317 316 317 316 316 316 319 322 324 325 325 325 325 334 330 332 333 335 333 329 328 326 326 328 332 335
305 305 305 305 305 305 305 304 303 303 303 303 308 310 310 312 313 312 314 317 316 319 318 317 317 317 317 317 319 320 322 324 324 327 326 327 332 333 332 332 331 328 326 325 327 329 333
305 305 305 305 305 305 305 304 303 303 303 303 308 309 309 310 311 311 311 313 310 311 314 316 318 318 318 318 318 319 320 324 325 324 325 327 331 332 332 331 330 330 330 328 327 326 327
304 304 305 305 305 305 305 305 304 302 303 304 306 306 308 307 308 309 308 310 311 311 312 315 316 318 322 320 321 322 324 322 323 326 328 329 331 332 335 334 334 333 331 331 331 330 328
303 304 304 305 305 305 305 305 304 303 303 303 303 305 308 308 307 309 309 307 310 310 313 311 310 313 317 315 317 321 323 325 325 325 325 328 333 332 335 336 339 335 333 331 331 331 332
303 304 304 304 305 305 305 305 304 304 303 305 303 303 305 308 306 307 308 308 308 308 310 309 309 310 311 314 319 323 324 325 326 326 329 329 331 333 336 336 337 337 337 339 341 340 333
303 304 304 304 304 305 305 305 305 304 303 304 305 303 303 305 307 307 308 308 309 309 310 310 310 311 312 315 317 322 324 324 325 324 325 330 334 337 338 338 340 338 340 339 339 339 333
303 303 303 304 304 303 305 305 305 305 304 304 304 303 304 304 305 306 307 308 308 309 313 312 313 312 311 314 317 320 321 321 324 328 327 329 333 334 337 338 336 341 338 337 341 340 346
303 303 303 303 304 304 303 303 305 304 304 303 304 305 304 305 304 306 307 307 306 308 309 312 312 314 316 321 322 320 321 323 325 329 332 330 335 334 336 336 337 339 339 341 345 345 345
303 304 302 303 303 301 302 303 303 304 303 302 303 303 302 303 305 305 306 306 306 307 308 308 310 311 314 322 325 326 331 334 330 330 330 333 333 334 337 339 343 340 341 340 341 345 345

GFSGBSN_925_thetae_021.txt.gz
Theta_e
311 311 311 311 308 306 306 307 308 307 305 306 303 302 300 300 300 301 301 301 301 302 303 304 304 306 310 323 322 320 321 320 320 321 327 325 323 326 330 333 334 338 340 340 339 341 340
311 311 311 311 309 307 306 305 305 305 304 304 303 303 302 301 301 301 301 302 302 302 303 304 306 311 320 317 316 319 321 321 325 328 326 325 326 327 331 332 333 336 336 334 337 340 341
310 310 310 309 309 309 307 306 307 306 305 304 304 303 302 302 301 301 301 302 303 303 304 306 313 318 321 316 319 323 323 325 327 327 325 326 327 328 329 331 332 333 334 332 334 334 340
310 310 309 308 308 307 307 307 307 306 305 304 304 303 303 302 302 302 302 303 304 305 307 311 319 321 322 316 318 319 322 322 327 326 327 327 327 326 327 328 330 330 328 329 332 334 337
307 307 307 307 307 306 306 307 306 305 304 304 304 304 304 304 303 303 303 303 306 311 310 317 321 324 326 324 321 320 323 323 326 327 328 328 326 325 324 326 326 326 328 329 331 335 338
308 308 307 307 306 306 305 305 305 304 304 304 304 303 302 302 303 304 303 307 315 314 322 324 325 328 329 327 326 324 324 324 323 324 324 326 325 324 323 323 327 326 328 328 331 336 342
309 308 307 307 308 307 305 305 305 304 304 304 304 302 302 301 303 304 304 310 317 321 325 330 327 327 323 326 327 327 326 325 322 321 322 323 324 325 324 322 325 327 328 330 331 338 347
310 308 308 308 308 308 307 305 305 305 305 304 304 303 302 301 304 306 310 314 314 315 314 315 317 322 326 328 330 328 326 322 322 321 324 323 325 325 326 325 325 326 328 329 331 339 345
310 309 308 308 308 308 309 307 306 304 304 303 303 303 302 302 305 312 307 310 314 313 311 313 315 316 317 320 326 328 325 324 323 324 326 324 326 328 326 326 327 326 327 329 332 339 343
308 309 309 308 308 308 308 307 306 304 303 303 304 303 302 303 310 306 310 314 313 313 312 316 318 318 317 318 323 328 328 326 327 325 325 325 326 326 326 325 325 327 328 330 331 335 343
308 308 308 308 308 308 308 307 305 304 304 304 304 303 303 303 305 309 312 312 312 313 319 324 322 322 318 318 323 327 328 326 327 327 323 324 326 326 325 323 323 326 329 330 331 332 342
309 307 306 306 308 307 306 305 305 305 304 304 304 303 303 305 306 307 309 310 312 315 320 323 324 321 319 318 320 323 326 323 324 327 326 324 324 325 325 325 324 324 327 329 330 331 337
307 306 306 306 306 306 305 305 306 305 304 304 304 303 303 306 307 309 310 312 313 316 323 326 325 324 321 320 320 320 322 322 321 324 324 327 326 324 326 324 322 323 321 327 330 332 333
307 305 305 306 305 305 305 305 305 305 305 304 304 303 305 308 309 310 311 313 315 321 319 322 323 324 324 323 322 322 322 321 321 322 323 324 327 327 326 325 322 322 321 324 329 332 332
306 304 305 304 304 304 305 305 305 305 304 304 303 305 307 307 310 311 312 315 316 318 320 319 319 322 325 326 326 323 322 324 322 321 322 324 326 328 327 327 325 323 321 322 321 326 330
305 305 305 304 304 304 304 304 304 305 304 304 304 307 309 310 313 311 313 315 316 317 317 316 317 319 320 319 319 326 324 324 324 323 322 324 327 327 328 326 325 323 324 321 322 323 328
305 305 305 305 305 305 304 304 304 304 303 304 306 308 308 309 312 313 314 315 316 316 316 318 319 319 319 319 319 319 320 327 326 326 324 323 324 326 327 327 325 324 323 321 320 322 325
304 304 304 305 305 305 305 305 304 304 303 305 306 308 308 308 309 313 314 314 313 315 315 316 318 319 319 320 319 319 320 320 325 327 326 324 323 324 325 326 327 325 324 321 323 323 325
303 303 303 304 304 304 305 305 305 304 304 305 305 306 306 307 309 311 312 313 313 312 312 313 314 315 317 319 320 320 320 321 321 321 326 326 325 324 325 325 326 326 325 323 322 321 323
304 304 304 304 304 304 304 305 305 304 303 304 306 307 307 308 309 310 310 312 313 313 314 314 315 316 317 319 320 321 321 321 321 320 336 332 326 325 326 326 328 330 327 326 323 323 323
304 304 304 304 304 304 304 304 304 304 303 303 307 307 306 308 310 308 309 312 311 311 311 311 315 316 316 318 320 321 321 320 320 323 325 322 328 326 325 326 328 327 330 327 325 323 324
303 304 304 304 305 305 305 304 304 304 304 303 306 306 306 307 307 308 308 308 308 309 311 312 312 315 315 319 320 318 316 317 319 319 318 319 329 329 328 327 326 326 329 330 327 326 326
303 304 304 305 305 305 305 304 304 304 304 304 304 305 306 306 306 307 308 308 309 310 311 311 310 311 313 313 314 314 313 314 315 318 319 320 323 329 328 329 330 327 326 329 330 328 327
303 304 304 305 305 305 305 305 304 304 304 304 305 305 306 305 304 305 305 306 308 309 310 310 310 310 310 310 311 312 315 316 318 320 319 320 322 327 327 332 334 331 330 330 331 332 328
303 304 304 305 305 305 305 305 304 303 304 304 303 305 305 306 305 305 305 307 308 307 308 308 309 309 311 312 314 317 318 319 319 320 320 321 321 326 330 330 330 330 329 332 332 330 333
304 303 304 305 305 305 305 304 304 302 303 304 304 304 304 303 305 305 306 306 307 308 309 309 308 310 313 314 317 320 322 323 325 325 320 321 322 328 328 330 330 329 330 331 338 340 345
303 302 303 304 305 304 304 305 305 305 304 304 304 304 303 303 303 304 306 308 307 308 309 309 310 308 311 315 317 319 319 319 324 329 330 326 333 332 329 327 328 330 327 336 340 341 344
302 302 301 302 302 304 305 305 305 304 304 305 304 304 305 305 305 305 305 306 307 307 307 309 311 310 311 315 315 317 317 317 325 326 330 334 330 333 332 332 333 339 337 338 339 344 346
302 302 302 302 302 303 304 304 304 304 304 304 304 304 304 305 305 304 304 305 305 306 308 308 310 309 312 316 318 319 320 322 327 334 327 331 333 339 335 345 341 344 345 342 348 351 352

GFSGBSN_925_thetae_024.txt.gz
Theta_e
311 311 311 310 310 308 308 308 308 307 306 306 305 304 304 304 303 303 302 302 302 302 302 302 304 306 312 320 318 318 320 321 321 320 328 325 321 320 324 325 327 337 337 342 343 341 338
310 310 310 310 309 307 307 309 309 307 305 305 305 304 304 305 305 305 304 303 303 303 303 303 306 313 316 309 314 315 317 319 321 327 327 323 323 321 323 326 328 331 332 333 336 340 339
308 307 307 307 306 306 306 306 306 305 305 304 304 304 303 304 305 304 304 305 305 305 305 306 309 317 320 310 315 320 320 320 321 323 323 325 323 324 324 327 328 330 330 330 329 333 340
309 308 308 307 307 307 306 305 305 305 305 304 304 304 303 303 303 303 304 306 307 306 309 309 315 320 318 314 316 314 317 320 324 323 327 326 325 323 324 325 325 327 326 327 328 341 341
310 309 309 309 308 308 308 306 305 305 305 305 303 303 303 302 301 302 304 307 308 313 311 314 320 320 320 321 322 320 316 319 324 323 326 326 323 322 323 323 322 323 326 326 326 337 343
311 310 310 309 308 308 309 309 307 306 305 304 303 303 303 302 302 302 304 308 316 320 323 323 324 323 320 323 328 322 319 319 320 322 324 325 322 322 320 319 324 325 325 325 326 331 342
310 310 310 309 308 308 307 309 308 307 305 304 304 304 303 303 303 303 307 312 309 313 323 324 324 325 322 324 325 323 321 321 321 321 321 320 323 325 322 321 322 324 325 325 326 329 342
309 308 309 309 309 309 309 308 308 306 305 304 304 304 304 303 303 306 309 311 314 311 309 312 317 319 321 322 326 327 323 321 320 320 318 320 321 322 323 322 322 322 324 325 325 327 341
309 309 308 307 308 308 309 307 306 305 305 304 304 304 304 304 304 309 305 308 311 310 307 310 312 313 314 318 322 324 322 320 321 318 319 319 321 323 325 325 323 322 322 323 325 327 347
309 309 308 306 307 307 307 305 304 305 306 305 304 304 304 303 305 304 308 310 310 310 308 312 312 313 313 315 316 320 324 322 320 321 319 320 322 323 324 326 324 321 323 324 325 327 336
308 307 305 305 307 306 305 305 305 305 305 305 305 304 304 303 304 306 306 309 310 309 319 321 318 316 313 315 318 320 322 322 323 322 321 323 324 324 325 325 325 323 323 325 326 326 327
306 307 304 304 305 305 305 305 305 305 305 304 304 304 304 304 304 306 307 308 310 311 317 319 320 316 315 315 318 322 324 324 323 324 322 323 322 323 324 324 325 324 321 322 325 326 328
306 305 304 305 304 303 304 304 304 304 304 304 303 304 303 304 306 306 309 308 308 313 317 322 317 316 315 315 317 318 327 327 325 322 326 326 324 322 324 322 322 320 317 320 323 325 328
305 305 305 305 305 305 304 304 304 303 303 303 303 303 304 305 305 306 310 307 311 315 315 316 316 317 319 316 316 317 317 328 325 319 319 325 326 324 322 322 323 319 318 320 322 325 326
305 305 305 305 305 305 305 305 304 304 303 302 303 304 305 306 308 307 306 312 311 313 315 315 316 316 317 318 317 316 317 318 325 320 320 319 323 324 325 324 322 321 318 318 317 321 323
304 304 304 304 304 304 304 305 305 304 303 302 304 305 305 308 307 309 308 312 311 313 314 315 316 316 317 317 318 317 316 318 319 319 319 319 320 320 323 324 325 321 319 319 313 320 321
304 304 303 303 303 303 304 304 305 305 303 302 304 302 305 306 304 306 310 310 313 313 313 314 314 314 315 317 317 317 318 317 319 320 320 320 319 321 323 322 324 324 321 317 317 317 320
303 303 303 303 303 303 303 304 304 305 304 303 303 303 304 304 302 303 311 310 311 312 312 313 313 313 312 315 314 316 318 318 319 319 318 318 318 320 320 321 324 324 323 318 321 318 318
303 303 303 303 304 303 304 304 304 304 304 303 301 300 305 305 304 304 306 310 310 311 312 313 313 312 314 315 317 316 319 319 316 319 319 323 318 320 319 319 319 322 323 322 314 315 320
304 304 304 303 304 304 304 304 303 303 304 302 301 303 299 300 303 306 307 310 310 310 310 310 311 314 315 315 315 318 319 317 316 317 323 317 322 321 324 323 321 321 324 322 321 322 321
304 304 305 305 305 304 304 304 304 303 304 303 302 301 302 303 304 306 306 308 309 309 309 309 310 313 314 316 317 318 318 316 315 318 315 315 317 320 320 322 323 324 325 324 322 323 323
304 304 305 305 304 305 305 304 304 303 304 303 304 305 301 305 303 304 305 307 310 310 309 311 311 311 311 312 313 314 315 313 314 314 313 313 317 318 324 325 323 324 325 325 324 324 322
304 304 305 305 305 305 305 304 304 303 304 304 303 304 305 304 303 302 303 304 305 307 310 310 309 310 309 308 310 309 309 310 311 313 314 314 316 317 322 323 323 325 325 325 325 325 323
304 304 305 305 305 305 305 304 305 304 304 304 304 303 302 306 305 304 303 305 306 308 308 307 307 309 308 309 309 308 310 309 310 312 313 317 318 316 321 322 325 324 324 324 323 326 324
304 304 304 305 305 305 305 305 304 303 303 304 304 304 304 305 304 304 304 305 305 305 304 307 307 306 306 309 311 311 313 314 315 314 315 316 318 321 322 326 325 329 327 325 323 325 327
302 302 303 304 304 305 305 305 305 305 304 304 304 304 304 305 303 304 304 304 304 303 306 307 305 306 307 310 313 313 317 319 322 321 318 318 318 321 323 326 328 326 328 328 329 331 342
301 301 302 302 303 304 305 305 305 305 304 304 304 303 303 303 303 302 303 304 303 303 304 304 306 306 307 310 318 313 315 315 322 322 324 331 328 324 324 329 323 325 327 333 334 333 342
301 301 300 300 302 304 305 305 305 305 304 304 304 303 304 305 303 303 303 304 304 302 307 304 307 307 306 312 315 313 314 313 319 324 329 330 333 333 330 331 329 331 336 331 332 343 339
301 301 301 301 302 303 304 304 304 304 304 304 303 302 303 304 302 304 304 304 304 303 303 302 307 308 309 309 309 314 317 317 319 325 326 330 331 334 332 338 330 337 341 345 347 348 349

GFSGBSN_925_thetae_027.txt.gz
Theta_e
308 309 309 309 307 307 306 306 308 307 306 306 305 304 304 304 303 304 304 303 303 304 305 304 306 305 315 318 312 318 318 323 317 327 326 324 322 332 323 322 340 351 347 342 344 344 342
309 310 311 310 309 309 309 307 306 306 305 305 304 303 303 303 303 303 302 302 303 305 306 306 310 311 314 306 313 315 314 323 320 327 325 323 322 319 321 322 325 327 334 333 333 335 342
311 311 311 310 309 309 309 310 309 307 307 305 304 304 303 304 303 303 302 303 305 307 307 309 312 315 318 308 314 317 316 317 322 321 323 324 323 321 319 321 323 327 329 329 328 329 338
312 312 311 310 309 308 308 308 310 308 307 305 305 304 304 304 304 303 303 304 307 308 313 313 314 318 313 311 313 314 316 317 318 324 322 323 324 319 323 323 324 325 325 327 329 336 335
310 310 311 310 310 309 309 309 309 309 306 305 304 304 304 304 304 304 304 306 310 316 311 314 318 318 315 317 322 316 314 315 317 324 324 324 321 321 322 323 321 320 327 326 326 336 340
309 308 309 309 309 309 309 309 307 306 305 305 305 304 304 304 304 304 306 311 315 322 322 321 322 320 317 319 327 324 320 316 319 318 321 323 321 320 317 318 325 324 324 324 325 329 340
309 309 309 307 307 307 308 307 306 305 305 305 305 305 305 304 304 305 306 312 308 310 318 320 323 321 319 321 324 321 317 316 318 320 320 321 323 322 322 319 321 324 324 324 325 329 340
310 309 308 305 306 307 306 305 305 304 305 305 305 304 304 304 303 308 305 306 308 308 308 310 310 312 316 319 319 319 318 317 318 318 319 319 324 323 322 321 321 322 322 323 323 328 337
307 307 306 304 306 307 306 305 305 305 305 305 304 304 304 304 304 306 305 308 306 307 305 308 310 311 312 315 318 318 318 318 319 318 317 322 320 320 323 323 322 320 321 323 323 324 337
307 307 306 305 305 305 304 303 303 304 303 303 303 303 303 303 304 303 306 306 307 308 307 312 311 310 312 316 317 318 323 320 319 320 318 317 318 321 321 323 322 321 320 322 323 324 324
306 306 305 306 305 304 304 303 303 303 303 303 302 303 303 302 304 304 305 306 309 305 320 321 314 313 311 314 316 317 321 321 320 320 317 318 319 319 321 322 321 324 323 322 323 323 324
306 306 306 306 304 304 305 305 304 303 303 303 302 302 302 304 303 304 305 305 307 310 316 318 316 314 313 314 314 318 320 321 320 319 319 321 320 319 320 322 322 323 323 320 322 320 323
306 305 305 304 304 304 305 305 305 304 303 303 301 302 302 304 304 304 304 305 308 311 315 318 315 315 315 314 315 319 321 322 322 322 321 320 320 321 321 321 321 321 317 321 319 321 324
305 304 304 303 303 303 304 304 303 304 304 303 301 302 303 304 306 304 306 305 309 314 312 314 315 314 317 316 315 315 322 323 323 320 322 323 325 321 319 321 322 319 319 317 319 320 323
305 304 304 304 303 303 303 303 304 303 304 304 302 302 304 306 305 305 304 309 309 311 314 315 315 315 316 316 315 316 314 324 325 318 321 321 324 322 324 320 322 320 319 318 316 319 318
305 305 304 304 303 303 303 303 303 303 303 304 302 303 304 304 303 306 306 310 310 312 313 313 315 314 314 315 316 315 316 316 316 322 318 317 320 318 322 322 319 321 315 319 310 321 321
304 304 304 303 303 303 303 303 303 303 303 303 303 300 303 303 304 304 308 308 310 310 311 312 313 313 313 313 314 314 316 317 318 319 317 316 316 320 319 320 324 322 319 316 314 313 320
304 303 303 303 303 303 304 304 304 303 304 303 300 301 303 303 300 299 305 306 309 310 310 311 312 312 313 314 315 313 314 316 317 318 319 317 311 320 321 319 321 322 323 316 317 317 315
304 304 304 304 304 304 304 304 303 303 304 304 298 297 304 303 304 304 305 308 309 309 309 310 311 310 313 314 314 317 318 317 316 316 321 320 318 316 316 317 317 319 321 321 319 315 322
304 304 305 304 304 304 304 305 304 303 304 303 301 302 298 298 301 305 305 307 309 308 309 309 310 313 313 314 313 316 317 317 314 315 320 314 314 317 319 318 318 318 320 321 320 321 323
304 305 305 305 305 305 305 305 304 303 304 303 303 302 299 302 302 303 303 306 310 310 309 308 309 310 312 314 316 316 315 314 312 315 312 312 317 316 318 319 320 320 319 320 320 322 323
304 304 305 305 305 305 305 305 304 304 304 303 304 304 304 303 304 302 302 306 308 306 307 310 310 308 309 310 311 311 311 312 312 312 310 310 317 315 319 319 321 322 321 321 321 322 320
304 304 304 305 305 305 305 304 304 304 304 303 303 303 304 305 304 304 303 303 303 305 307 309 307 307 308 309 308 307 307 307 309 311 310 312 315 316 319 318 320 323 322 322 322 322 322
302 304 304 304 305 305 305 304 304 303 303 304 304 303 303 305 305 304 303 303 304 305 306 306 305 307 307 306 307 306 306 307 308 309 310 312 314 315 318 318 325 322 321 323 322 322 320
301 301 302 304 304 305 305 305 305 303 304 303 304 304 304 305 304 303 304 304 304 303 303 303 304 305 304 306 309 309 309 311 310 310 310 311 313 317 320 321 322 323 324 322 321 322 322
301 301 301 301 303 304 305 305 305 304 304 304 304 303 304 305 304 303 303 303 303 304 304 304 302 301 305 305 309 312 313 314 310 317 311 311 312 318 320 322 326 323 331 332 329 324 323
301 301 301 301 301 304 304 305 305 305 304 304 303 303 303 304 301 301 303 301 302 303 303 302 303 305 305 306 310 311 312 312 316 316 317 316 316 319 321 324 324 330 336 337 331 326 337
301 301 301 301 302 303 304 305 305 305 304 304 303 303 303 304 303 302 303 303 303 303 304 301 303 303 303 307 309 312 312 312 313 316 319 323 326 324 321 327 326 334 336 343 339 340 336
301 301 301 302 302 302 303 305 305 305 304 304 304 303 302 303 303 303 303 303 302 302 302 302 303 303 304 306 308 309 312 313 313 319 316 321 324 326 325 328 329 331 334 331 332 338 342

GFSGBSN_925_thetae_030.txt.gz
Theta_e
312 312 312 311 310 310 311 311 311 311 310 308 306 304 305 305 305 307 306 305 304 304 305 307 309 310 315 316 310 318 317 323 331 341 344 345 352 350 333 337 348 352 346 344 344 343 342
312 312 312 311 310 310 310 310 310 310 310 306 305 305 304 304 305 305 305 306 305 304 305 307 312 313 312 304 311 312 316 318 342 336 336 328 334 334 325 326 337 333 342 341 338 332 339
311 311 311 310 310 310 310 310 309 307 306 306 306 306 305 305 305 304 304 304 305 306 307 310 313 313 317 305 312 312 320 318 326 331 322 324 322 328 321 322 320 323 325 326 327 327 333
310 310 310 309 309 308 308 309 306 305 305 305 305 305 305 304 304 304 304 306 308 310 314 316 315 316 309 309 310 311 320 324 320 326 323 325 323 319 320 321 321 323 324 326 326 328 328
310 310 310 310 308 308 308 308 307 305 305 305 305 305 304 304 304 303 306 307 315 316 313 315 315 315 311 315 318 312 313 315 325 324 323 322 321 320 320 321 320 320 325 324 326 327 338
310 309 309 308 307 307 308 305 304 305 304 304 304 303 303 303 303 303 307 314 322 321 318 319 319 317 315 317 321 321 314 313 318 319 322 322 318 319 316 318 319 322 322 323 325 329 337
309 308 308 307 307 306 305 303 303 303 303 303 303 303 303 302 303 304 306 310 306 308 309 322 321 318 318 319 321 317 315 315 317 318 319 320 322 323 320 318 320 322 323 325 324 326 338
308 307 307 306 306 305 304 303 303 303 303 302 302 302 302 302 302 306 307 306 305 305 307 308 308 311 317 316 317 318 316 315 317 319 318 318 323 322 321 319 321 321 322 322 322 323 334
307 306 305 306 306 305 304 304 304 304 303 302 302 302 301 302 302 303 305 305 304 306 305 308 308 310 310 312 314 316 314 315 317 317 319 322 320 322 323 321 322 320 322 322 324 323 330
306 306 306 305 305 305 305 305 304 304 304 303 303 302 302 301 302 303 303 304 304 306 306 311 309 310 313 311 313 316 316 318 318 320 315 318 319 323 322 323 320 319 319 322 322 321 323
306 305 305 305 305 304 304 303 303 303 303 303 303 303 302 302 303 303 303 304 304 303 319 319 311 311 311 313 315 315 319 319 318 318 317 319 317 320 322 323 320 324 320 320 320 320 321
305 305 305 305 304 304 303 302 303 303 302 302 302 302 302 303 303 303 304 304 304 312 318 318 313 312 312 312 313 316 318 320 317 319 318 318 317 319 318 319 320 321 321 317 317 317 322
306 305 305 305 304 303 303 302 302 303 302 302 302 302 303 303 304 304 305 303 308 312 313 317 314 314 314 314 313 316 318 321 320 319 319 319 319 319 317 319 319 320 318 321 321 321 324
305 304 304 303 303 303 303 303 303 303 302 302 302 302 302 304 303 305 305 304 310 312 312 313 314 313 315 314 315 315 317 321 320 319 319 320 320 320 318 318 319 318 317 319 322 321 323
305 305 304 303 303 303 303 303 303 303 302 302 302 302 303 305 303 304 302 306 308 310 313 313 313 314 314 314 315 315 314 320 322 317 321 318 320 321 319 319 320 317 320 316 316 316 316
305 304 304 303 303 303 303 303 303 302 302 302 303 301 302 303 303 304 305 308 308 310 310 311 313 312 313 312 314 312 314 316 318 318 315 318 322 319 320 319 319 317 315 320 311 321 320
304 304 304 304 303 303 303 303 304 303 302 303 302 298 302 303 303 302 304 306 308 309 310 310 311 312 311 313 313 312 313 317 316 318 317 314 315 318 319 321 322 318 317 314 316 314 319
304 303 303 304 303 303 303 304 305 303 302 303 298 299 302 303 300 298 303 304 307 309 307 309 310 312 313 314 314 313 317 317 315 316 321 320 310 318 318 318 321 322 321 314 318 317 312
304 304 304 304 304 304 305 305 304 304 303 304 297 297 303 302 302 301 303 305 306 309 308 308 309 312 312 313 313 316 316 316 314 316 321 318 315 315 316 317 317 319 320 316 318 314 319
304 304 305 305 304 304 304 304 304 303 303 304 298 300 297 299 298 303 303 303 307 308 310 308 308 310 311 312 312 314 316 315 312 316 318 314 313 315 319 319 318 317 318 319 320 321 322
304 304 305 305 304 304 304 304 304 304 303 303 298 301 302 300 301 304 302 302 307 307 306 308 311 308 308 311 311 312 312 311 311 313 310 311 316 316 317 317 318 319 319 319 318 321 322
304 304 304 305 305 305 304 304 304 304 303 303 300 304 303 303 303 304 302 302 304 304 305 307 311 308 306 308 309 309 308 310 310 310 309 308 315 315 317 318 318 319 319 320 320 318 318
301 302 304 304 305 305 305 304 304 304 303 303 303 303 302 304 303 304 303 303 303 303 304 308 307 307 306 308 306 305 304 305 307 309 309 309 313 315 318 317 318 319 318 319 319 318 319
301 301 301 303 304 304 304 304 304 304 304 303 303 303 304 305 305 304 304 303 303 303 304 305 304 304 305 304 304 304 304 305 306 307 307 309 312 313 316 317 321 318 318 320 319 320 318
301 301 301 301 302 304 304 305 305 304 304 304 304 303 303 303 303 303 303 303 302 301 301 302 303 302 301 304 306 306 305 308 308 308 308 308 309 313 317 318 317 318 328 334 334 331 321
301 301 301 301 302 304 305 305 305 304 304 305 304 304 303 304 304 302 303 302 302 301 302 302 301 300 304 303 306 309 308 309 312 312 307 308 309 312 315 320 322 322 333 334 335 338 329
301 301 301 301 301 302 304 305 305 305 304 304 304 303 303 304 303 301 303 302 301 303 304 301 301 303 303 306 308 308 308 310 311 314 311 310 311 312 314 320 320 320 332 335 333 331 337
300 301 301 300 300 301 304 305 305 305 305 304 303 303 303 303 303 303 303 303 303 303 303 301 301 301 303 306 307 306 310 310 310 308 311 311 314 314 314 319 319 327 331 340 334 334 336
301 301 300 300 300 301 303 305 306 305 305 305 304 303 303 303 303 302 302 302 302 302 302 302 304 301 306 305 306 307 309 310 309 312 311 314 316 319 314 315 317 329 331 330 330 335 335

GFSGBSN_925_thetae_033.txt.gz
Theta_e
312 312 311 311 310 310 310 310 311 308 308 308 307 306 306 305 305 305 304 304 304 305 306 308 311 313 314 316 311 313 316 321 341 341 344 347 350 350 353 353 354 359 352 346 347 345 343
310 310 310 310 309 309 309 309 309 308 306 306 305 305 304 304 304 303 303 304 306 305 306 310 312 314 313 307 309 311 317 328 342 340 341 343 348 348 346 342 348 341 347 342 333 336 338
311 311 310 309 309 308 309 309 308 308 308 306 304 303 303 303 303 302 303 305 306 308 308 311 314 314 316 310 310 311 322 333 340 336 339 337 342 342 336 328 331 328 327 328 328 330 332
310 309 309 308 308 307 307 306 305 303 303 303 303 302 302 303 302 301 302 306 316 316 314 315 315 314 312 308 309 324 327 327 340 332 331 332 329 340 325 323 324 326 327 330 329 329 330
309 308 308 308 308 305 304 303 303 303 302 302 302 302 302 302 302 302 304 306 318 315 318 317 315 317 312 315 313 310 316 324 337 331 324 326 325 327 323 325 324 324 327 329 330 329 335
308 308 307 307 307 306 305 304 304 304 303 303 303 303 302 302 302 303 305 314 320 318 317 318 317 317 313 316 317 312 313 322 326 327 325 323 324 325 324 324 325 324 325 326 329 331 337
307 307 307 307 307 305 304 304 303 303 302 302 303 303 303 302 302 302 308 308 310 312 308 325 323 317 320 318 320 316 312 319 320 322 321 323 323 325 324 323 322 322 324 328 328 328 337
307 307 306 306 305 304 303 303 302 301 301 301 302 302 302 302 302 303 307 307 304 303 309 310 308 312 316 317 319 318 313 316 318 319 320 324 323 322 322 323 323 322 323 326 327 326 329
306 306 305 305 305 304 303 303 302 302 302 301 301 302 302 302 302 303 304 304 303 304 309 311 310 312 313 314 317 319 316 316 318 319 320 322 322 322 323 324 324 324 322 323 326 327 328
305 305 304 305 305 303 302 301 302 302 301 301 302 302 301 302 302 303 304 303 304 304 313 316 312 313 312 315 317 317 317 318 318 320 321 321 322 323 323 324 325 323 323 322 324 326 330
306 305 305 305 305 304 302 302 302 302 301 301 301 301 302 302 303 305 304 304 304 304 318 318 312 311 313 318 317 317 317 319 321 320 321 322 323 323 324 323 325 323 323 323 323 326 328
305 305 305 305 304 303 302 302 303 303 302 301 301 301 302 303 303 303 304 304 304 313 318 319 313 313 315 315 315 317 318 320 321 322 321 322 320 323 325 324 325 325 324 325 325 326 328
306 305 305 304 303 303 303 303 304 303 301 300 301 301 302 303 304 303 304 306 313 316 316 318 317 316 316 316 315 318 320 321 323 323 324 323 321 322 323 325 325 325 325 327 327 327 328
306 304 304 304 303 303 303 303 303 303 302 301 301 302 303 304 304 302 305 307 313 313 314 314 315 316 317 316 317 317 320 322 324 323 324 324 324 322 322 324 324 326 325 324 326 326 326
305 304 304 303 304 303 303 303 304 304 303 301 302 302 302 302 302 302 308 305 311 313 312 312 314 317 317 315 315 317 320 322 324 323 324 324 323 322 321 322 324 324 327 324 323 322 324
303 304 304 304 304 304 304 304 304 304 303 302 303 300 302 302 303 305 306 308 310 310 310 312 314 314 316 315 317 317 320 319 321 321 321 324 326 324 322 322 323 323 324 323 325 324 325
303 304 304 304 305 304 304 305 304 303 302 302 301 303 302 303 302 306 307 307 307 308 310 311 312 313 314 315 315 316 319 317 316 320 322 322 323 323 324 324 324 322 324 324 324 324 324
304 304 304 304 303 304 304 304 304 303 302 303 300 303 302 303 304 304 305 304 306 308 309 310 311 313 315 315 315 317 320 319 314 319 324 321 321 326 325 324 324 324 324 325 325 328 325
304 304 304 304 304 304 304 304 304 303 303 303 303 301 302 302 305 305 304 305 305 308 310 310 311 312 313 315 316 317 318 315 315 319 321 320 323 328 326 324 322 325 325 325 325 326 328
304 304 305 304 304 304 304 303 303 303 303 303 304 304 303 302 302 303 303 305 305 306 308 310 311 309 311 314 314 315 315 314 312 315 317 318 320 325 328 327 323 325 324 325 325 328 327
303 304 304 304 304 304 304 304 304 303 303 303 304 304 303 304 303 304 304 304 306 306 304 307 309 310 309 312 312 313 312 312 312 313 313 317 321 319 319 318 319 321 322 322 325 327 329
301 303 304 304 304 304 303 303 304 304 303 303 305 305 303 302 304 305 304 304 304 304 304 304 310 310 308 311 310 311 309 311 312 313 313 313 316 317 317 316 318 321 321 321 322 323 323
301 301 303 304 304 304 305 303 303 304 304 304 304 304 303 303 304 305 305 304 304 304 304 306 306 306 306 308 306 307 307 307 308 310 311 313 314 315 316 317 318 321 321 322 322 322 323
301 301 301 302 303 304 305 305 304 304 304 303 302 303 305 305 304 303 303 303 304 304 305 305 304 305 304 304 305 306 307 308 308 308 309 312 317 315 313 315 319 321 321 322 325 323 323
301 301 301 301 301 301 303 305 305 304 304 305 304 303 304 306 303 304 303 303 303 304 303 303 304 304 303 305 307 305 306 309 309 308 309 310 311 314 313 316 317 317 319 328 334 329 334
300 300 300 301 300 300 302 305 305 305 304 305 304 304 304 305 304 303 304 303 303 302 303 303 303 303 306 307 308 307 305 308 307 312 311 310 310 312 314 313 316 321 322 327 336 331 338
300 300 300 300 300 300 300 305 306 306 305 305 304 303 303 304 303 303 304 305 303 304 304 303 304 304 306 307 307 307 308 309 307 307 314 312 311 312 312 314 314 316 323 335 337 332 340
300 300 300 300 300 300 301 304 306 306 306 305 305 303 303 304 303 303 303 304 303 303 305 303 304 305 306 307 308 307 309 309 312 309 308 311 314 314 312 313 312 316 318 322 335 337 336
300 300 300 300 301 302 304 306 307 307 306 307 307 305 303 303 304 303 302 302 302 303 303 303 304 305 306 308 307 307 311 311 311 312 311 313 312 315 314 311 314 317 322 323 330 333 335

GFSGBSN_925_thetae_036.txt.gz
Theta_e
311 311 310 310 309 309 310 309 308 308 306 306 304 303 302 302 302 302 302 303 303 306 306 309 312 312 316 318 315 318 318 319 324 329 332 337 343 342 343 347 350 354 350 346 345 346 344
310 309 309 308 308 308 307 307 307 305 304 304 304 304 304 303 302 302 302 303 304 306 313 311 313 313 316 315 314 312 324 327 329 332 333 337 341 339 340 345 349 345 348 345 340 339 338
309 309 308 308 307 305 304 304 304 304 303 303 303 303 303 302 302 302 302 304 305 316 318 315 314 315 318 317 312 313 324 327 334 334 334 336 338 340 341 342 338 343 336 334 335 334 334
308 308 308 308 308 305 304 303 303 302 302 301 302 302 302 301 301 301 302 305 311 316 317 315 315 316 320 315 314 319 325 328 335 333 330 334 336 340 337 332 330 335 331 335 335 334 333
308 308 308 308 307 303 302 301 301 301 301 301 301 301 301 301 301 302 302 308 319 318 318 316 318 319 321 313 312 315 326 328 335 333 331 332 333 338 337 331 331 330 336 338 337 334 335
307 307 307 307 303 301 301 300 301 301 301 301 301 301 301 301 302 302 304 314 318 319 319 320 318 320 318 318 317 313 319 324 336 331 331 332 331 334 338 337 334 335 333 335 339 336 335
307 307 306 306 305 303 302 301 301 301 302 301 301 300 300 301 302 303 306 311 318 322 314 325 327 322 322 319 319 315 314 329 333 329 326 326 327 328 328 329 331 332 333 334 335 335 334
307 306 306 306 306 305 303 302 301 301 302 302 300 300 300 301 302 305 309 311 307 305 310 313 314 319 322 321 324 318 317 325 327 330 324 324 325 324 326 326 327 328 329 332 334 333 332
306 305 305 305 305 304 303 302 302 302 302 301 300 300 301 301 303 307 308 307 306 307 312 315 316 317 317 319 322 320 320 322 325 326 323 324 324 324 324 325 327 327 329 330 332 332 331
306 305 305 304 304 303 302 302 302 302 302 302 301 301 301 302 306 307 307 306 307 307 316 318 317 317 318 320 321 323 317 322 322 325 324 324 324 324 324 325 325 327 326 327 328 330 334
306 305 304 304 304 304 304 303 302 302 303 302 301 301 301 304 307 307 306 306 307 309 316 321 317 315 317 322 324 321 320 321 321 322 324 324 323 324 324 324 325 325 325 326 327 328 331
306 305 305 305 305 304 303 303 303 304 304 303 301 301 303 306 307 306 305 306 309 315 315 321 316 316 317 319 322 323 323 319 320 322 323 324 324 323 324 324 324 323 325 324 326 327 330
305 305 305 305 304 304 304 304 304 304 303 302 301 302 305 305 307 305 305 310 312 314 317 321 320 319 319 319 321 321 323 324 326 326 324 323 324 324 324 325 326 325 327 328 327 327 329
305 305 305 304 305 304 304 304 304 304 303 302 302 304 305 305 305 305 306 311 310 314 317 316 317 318 320 321 320 321 323 325 325 326 327 327 326 324 325 326 327 326 326 326 328 327 328
305 304 304 305 304 304 304 304 304 303 302 302 303 305 305 304 305 307 309 308 309 315 313 314 316 320 322 320 320 320 321 325 325 326 329 328 328 325 325 325 326 328 328 326 325 327 328
304 304 305 304 303 304 304 304 303 303 302 302 305 305 305 304 304 308 308 307 310 309 310 313 316 317 321 321 321 322 322 322 325 325 327 328 330 326 325 325 326 327 327 326 326 329 329
304 304 303 303 304 304 304 303 303 303 302 304 306 307 305 304 305 307 306 306 306 307 308 311 314 315 317 319 319 321 323 320 320 325 325 327 328 329 326 326 326 326 327 327 327 326 328
302 303 304 304 304 304 304 303 303 303 303 305 306 306 304 304 307 307 307 306 306 307 308 310 311 311 316 317 319 321 324 322 318 322 326 327 328 331 328 326 325 326 327 327 327 330 327
301 301 304 304 304 304 303 304 303 303 303 305 307 307 304 304 306 306 306 306 306 307 308 310 312 312 313 316 319 319 321 316 315 320 326 326 327 331 331 328 327 327 327 327 327 328 331
301 302 304 304 304 304 303 303 304 303 302 305 307 307 306 306 305 306 306 306 306 306 306 306 311 312 314 313 314 317 318 315 314 315 317 320 328 330 332 331 328 328 327 327 327 330 329
301 301 302 303 303 304 304 304 303 304 303 305 306 306 305 307 306 306 306 306 306 306 306 306 309 309 311 314 313 314 315 314 315 315 317 320 328 327 329 326 325 329 327 328 329 329 330
301 301 302 302 302 303 303 304 304 304 303 306 306 306 306 306 305 305 305 306 305 305 305 306 309 307 307 312 313 313 312 314 314 315 316 316 325 323 326 323 323 325 326 327 328 329 330
301 301 301 301 301 301 302 302 304 305 304 306 305 305 306 305 306 306 306 304 304 305 305 306 306 306 306 307 309 309 309 310 311 312 314 315 318 322 327 325 323 326 326 327 327 328 329
300 301 301 301 301 301 301 302 304 305 305 304 304 305 306 307 306 305 305 305 305 304 305 306 305 306 306 306 306 308 309 309 309 310 312 315 316 319 323 324 327 326 326 326 326 327 327
300 300 300 300 301 301 300 301 305 305 305 305 304 304 305 307 305 306 305 305 306 305 305 305 305 306 306 307 309 310 309 309 309 309 310 312 315 317 321 322 324 324 322 324 326 328 327
300 300 300 300 300 300 300 302 305 306 306 306 305 302 305 306 306 305 306 305 306 305 305 305 305 306 307 309 309 310 308 309 310 310 310 311 313 315 317 321 324 323 323 323 325 332 330
300 300 300 300 300 301 301 305 306 307 307 307 306 304 302 305 304 305 307 307 305 305 306 305 305 306 306 308 310 309 308 308 309 309 315 311 313 314 314 317 319 320 325 330 330 342 337
299 301 302 302 302 302 303 306 307 307 307 308 307 306 303 304 304 305 305 305 305 305 306 305 306 307 308 309 309 308 308 309 310 310 310 313 313 313 314 315 316 316 317 321 326 326 332
303 302 302 302 302 303 306 307 306 307 307 308 308 306 305 303 304 305 305 305 304 304 306 305 305 305 307 310 310 310 311 311 312 312 311 313 312 313 313 313 314 316 317 320 320 322 324

GFSGBSN_925_thetae_042.txt.gz
Theta_e
310 310 310 309 306 303 303 302 302 301 301 301 301 300 300 300 300 300 301 302 302 303 307 308 309 314 315 321 320 322 319 320 320 318 323 326 335 339 347 347 347 347 349 350 351 350 350
309 309 309 308 305 302 301 301 301 301 301 301 300 300 300 300 300 301 301 302 302 306 314 318 317 316 317 324 324 322 325 327 321 319 324 324 333 337 343 346 346 346 346 348 351 345 350
309 309 309 308 304 302 301 301 301 301 301 301 301 300 300 300 300 301 302 304 304 309 318 319 319 316 318 323 324 320 322 327 324 321 322 324 327 335 339 344 343 344 346 347 348 344 344
308 308 308 308 303 301 301 301 301 302 302 302 302 301 300 300 301 302 304 307 308 311 318 317 321 318 322 326 324 323 318 321 324 322 322 325 325 332 337 340 343 343 345 349 346 346 343
308 308 307 307 303 302 301 301 301 302 303 303 303 302 301 301 301 306 309 311 311 312 320 318 320 320 328 326 326 325 321 319 327 326 326 327 327 330 333 341 345 344 347 349 347 345 344
308 308 308 307 305 303 302 302 302 303 303 303 302 302 301 301 302 308 310 312 312 315 321 321 323 326 326 328 326 325 324 321 327 329 331 330 330 330 333 341 349 347 344 346 347 342 341
307 307 307 306 304 302 302 302 303 303 303 302 302 301 301 301 303 308 308 312 312 323 314 321 327 325 327 328 325 324 324 323 327 330 334 334 333 336 335 338 341 342 341 339 343 344 341
307 306 304 304 304 304 304 304 304 304 303 303 302 302 301 301 304 309 310 312 310 310 312 313 314 315 318 324 326 324 322 323 328 332 334 335 336 334 334 336 339 341 340 336 339 341 342
305 305 304 305 305 304 303 304 304 303 303 303 302 302 302 303 306 311 312 309 308 310 312 311 313 315 315 318 323 327 322 325 329 333 335 336 334 333 334 336 336 341 340 337 338 341 342
304 304 305 305 304 303 304 304 304 303 303 303 302 302 302 303 308 311 310 308 308 310 312 315 317 318 316 317 322 328 322 328 329 332 336 335 334 333 334 336 333 339 339 338 338 340 344
304 305 304 304 303 303 304 303 302 302 302 302 302 302 304 303 308 312 308 308 309 311 316 321 320 321 320 317 324 326 327 326 328 332 335 337 334 333 334 334 332 331 332 337 338 337 338
304 304 304 303 303 303 302 302 302 302 302 302 302 303 305 309 310 310 307 308 310 313 314 321 321 320 322 319 319 323 328 326 327 329 334 336 332 330 328 330 328 328 331 332 333 335 338
304 303 303 303 303 303 303 302 302 302 302 302 302 305 306 308 310 307 307 310 311 312 314 316 315 316 317 321 322 320 328 329 324 326 338 335 335 329 327 327 327 327 327 330 331 334 335
303 302 302 303 302 302 302 301 301 301 302 303 303 307 309 310 308 307 308 311 312 311 312 312 311 312 316 320 323 324 324 329 324 324 330 332 334 333 327 327 328 327 326 329 333 332 331
302 301 302 302 302 302 302 302 302 301 302 303 306 310 312 310 308 308 311 313 311 310 310 309 308 311 314 317 320 324 326 328 328 323 331 331 331 331 330 327 328 327 328 327 327 329 329
302 302 302 302 303 303 303 303 304 303 303 304 308 311 313 310 308 310 312 311 310 309 308 307 307 309 309 312 315 320 324 326 328 324 326 329 331 330 330 329 327 328 328 327 328 332 334
301 302 302 302 303 303 303 303 304 303 303 306 311 314 311 310 309 312 312 310 310 309 307 307 308 308 309 312 315 317 323 324 325 327 327 326 330 330 331 330 329 328 329 328 327 328 331
301 301 302 302 302 302 302 302 303 302 304 306 310 315 312 309 311 311 310 310 307 309 308 308 308 308 312 314 316 319 323 325 325 322 326 329 327 331 331 331 329 329 328 330 332 335 331
301 301 302 302 302 302 301 301 302 302 302 306 312 314 312 310 311 310 310 309 308 309 309 309 308 307 308 310 314 319 320 320 320 321 323 325 331 332 332 334 331 330 329 329 331 330 336
301 301 301 301 302 302 302 302 302 302 301 306 312 314 312 310 311 310 310 309 308 307 309 309 310 309 309 310 311 316 316 317 318 320 328 322 329 333 335 336 334 333 329 330 329 333 332
301 301 301 301 301 302 302 302 303 302 303 307 310 311 310 311 310 311 311 309 309 310 309 308 308 311 312 310 311 313 315 315 317 322 322 325 332 332 333 333 334 330 329 330 331 333 334
300 300 300 300 301 302 302 302 304 304 304 307 310 309 307 309 310 310 311 311 310 308 308 307 308 310 311 310 310 311 311 313 318 317 317 322 329 331 334 333 333 335 331 330 330 330 331
300 300 300 301 301 301 301 301 303 305 305 306 308 306 306 307 309 310 310 309 309 309 308 307 308 308 308 308 308 308 308 310 313 314 316 320 325 329 334 334 334 336 334 331 331 331 331
300 300 300 299 300 301 302 304 306 306 306 307 307 305 304 308 309 310 310 309 309 310 309 307 307 307 307 309 308 308 309 310 311 312 314 317 321 326 331 333 339 335 334 332 332 331 331
299 300 302 304 303 303 305 306 306 306 306 307 308 304 304 307 308 308 308 310 310 310 310 309 307 308 308 308 309 310 312 312 312 313 313 315 317 323 330 333 334 334 333 333 332 333 331
303 303 302 302 303 303 306 307 307 307 307 307 308 307 302 305 308 308 309 309 310 312 309 308 308 308 308 307 310 312 315 317 312 314 314 314 317 320 326 330 334 334 331 330 331 333 334
302 302 302 302 303 305 307 307 307 307 307 307 308 308 303 305 304 307 310 309 309 310 310 309 309 309 309 311 312 313 313 313 314 314 315 315 316 319 322 326 329 330 327 329 333 341 337
302 302 302 303 305 306 306 307 307 307 307 308 309 308 305 305 305 307 308 309 310 309 311 309 309 311 312 314 315 316 316 315 313 315 317 316 316 318 320 323 327 324 325 332 334 330 328
302 303 305 306 307 306 306 307 307 307 308 308 309 309 308 304 307 307 308 307 308 308 309 309 310 308 309 312 314 311 313 312 313 314 314 314 317 319 319 320 326 323 322 322 322 324 324

GFSGBSN_925_thetae_045.txt.gz
Theta_e
309 309 309 308 302 301 300 300 301 301 302 302 302 301 301 300 300 300 301 302 303 305 306 316 317 313 314 318 318 321 321 320 320 318 319 318 322 329 335 345 347 347 349 348 347 346 350
309 309 309 307 302 301 301 301 301 302 302 303 302 302 301 301 300 301 303 305 307 308 308 318 320 316 316 319 321 323 324 322 324 320 319 318 324 329 333 338 345 345 347 348 346 347 348
308 308 308 306 303 302 301 301 301 303 303 302 302 302 301 301 301 302 307 308 308 309 309 317 321 317 317 314 321 324 324 323 322 319 317 319 323 325 333 338 341 344 346 350 350 350 352
308 308 308 305 303 302 302 302 303 303 303 302 302 302 301 301 301 303 307 309 310 311 310 319 320 320 320 318 322 322 322 327 321 320 318 320 324 322 325 334 339 342 344 345 347 347 348
308 308 307 304 303 303 303 304 304 303 303 303 302 302 302 301 301 303 308 310 311 312 314 318 321 321 323 324 323 324 323 325 324 323 321 320 321 322 323 331 336 339 345 344 347 344 347
308 307 305 305 304 304 303 303 303 303 302 302 302 302 302 302 301 304 307 310 310 319 322 321 322 322 322 325 327 326 324 322 321 323 323 322 322 324 322 328 336 340 343 342 346 346 346
307 305 304 304 303 302 303 303 302 302 302 302 302 302 302 302 302 307 308 310 308 314 314 308 310 318 312 324 321 326 325 324 319 325 326 326 326 327 324 327 331 340 343 343 341 344 343
304 304 304 304 302 302 302 302 302 302 302 302 302 302 302 302 302 308 311 309 307 308 307 309 310 311 312 313 317 321 326 324 321 325 326 329 330 327 328 328 329 337 342 343 340 339 341
304 304 303 303 302 302 302 303 302 302 301 302 302 302 303 303 304 310 310 308 308 308 307 309 310 311 311 312 314 317 321 324 321 324 326 330 332 331 331 329 330 334 338 340 340 336 336
303 303 302 302 302 302 302 302 301 301 301 302 303 304 304 304 307 308 311 309 308 308 308 313 315 315 315 313 314 318 321 323 323 323 326 329 331 333 333 331 331 335 336 339 340 338 342
302 302 302 302 302 302 302 301 301 302 303 303 304 304 305 305 307 310 310 309 308 309 313 318 314 315 312 313 314 318 319 321 322 323 327 330 333 333 333 333 332 335 334 336 338 339 338
302 302 302 302 302 302 302 303 304 304 303 303 303 305 306 307 308 310 309 308 308 310 314 313 312 311 310 311 316 320 318 322 321 322 328 329 333 332 332 332 332 333 333 331 336 338 340
302 302 302 302 303 303 304 304 303 302 302 302 303 307 308 307 310 309 309 308 310 311 312 311 308 308 308 310 313 314 317 322 325 323 329 329 330 333 332 332 331 332 330 330 330 334 337
302 302 302 303 303 303 303 302 302 301 301 301 302 309 311 311 311 311 308 308 313 312 309 309 308 308 307 309 311 312 313 320 325 324 326 329 331 332 333 330 330 331 330 327 332 333 333
301 302 302 302 303 303 302 302 301 301 300 301 303 310 312 313 313 310 309 311 312 309 309 308 307 306 306 307 310 311 313 317 324 327 325 325 327 334 334 329 326 327 326 323 323 326 326
301 301 302 302 302 302 302 302 302 301 300 301 306 311 314 312 311 310 310 312 311 309 308 307 306 307 307 308 311 311 313 316 318 323 318 323 322 331 333 333 327 324 323 323 322 324 326
301 301 301 302 302 302 302 301 302 301 300 301 308 313 311 311 311 311 311 312 311 309 309 309 307 306 306 308 311 312 314 315 319 319 318 321 322 322 327 332 332 324 324 323 321 322 325
301 301 301 301 301 302 302 301 301 302 302 302 308 312 313 310 312 311 311 310 308 308 308 309 309 308 308 308 308 309 311 313 316 316 317 319 323 323 323 326 330 327 324 323 324 324 323
301 301 301 301 301 301 301 301 301 302 302 306 309 312 311 309 311 312 311 311 309 308 307 309 309 309 308 309 312 314 315 314 315 315 316 319 322 328 325 324 325 328 325 324 323 324 325
300 301 301 301 301 301 302 302 302 302 301 305 310 311 310 309 308 309 310 311 311 310 310 309 308 308 309 309 310 313 311 314 313 313 317 321 322 323 329 326 327 329 328 325 324 326 325
300 300 300 300 301 302 302 301 303 303 302 306 309 310 308 309 308 308 309 309 312 312 310 309 309 308 310 309 310 311 311 311 310 313 315 315 319 324 329 329 330 331 328 327 325 325 329
300 300 300 300 300 301 301 302 305 305 304 307 309 310 307 307 307 308 309 310 310 309 310 310 308 308 307 310 310 309 308 309 311 312 313 312 319 324 333 332 331 333 332 328 327 326 326
300 299 299 301 303 305 304 306 306 306 306 307 308 307 306 307 307 309 310 310 311 310 310 310 310 307 308 307 307 307 307 307 308 313 312 311 316 322 331 332 334 336 334 329 328 328 327
299 302 304 303 303 305 305 306 306 306 306 307 307 306 305 308 308 308 308 309 310 310 311 310 310 310 307 307 307 307 307 307 307 309 310 312 313 319 328 332 337 333 333 333 329 329 327
303 304 302 302 304 306 307 307 307 306 306 307 307 305 304 306 307 308 310 310 309 310 310 310 308 308 308 308 308 309 310 311 311 310 310 311 313 318 327 332 333 334 329 329 333 339 336
303 302 302 303 305 307 306 306 307 307 307 307 308 308 303 305 307 308 309 308 310 311 310 309 309 308 309 310 310 312 313 314 316 312 311 312 314 319 324 333 338 328 326 324 328 338 330
302 302 302 305 306 306 306 307 307 307 307 307 308 308 303 305 304 306 310 310 309 310 311 309 309 309 309 311 312 315 316 315 316 317 314 315 316 318 320 325 331 322 322 328 337 335 326
301 302 304 306 306 306 306 307 307 307 307 308 309 309 306 305 305 306 307 309 309 310 312 310 310 310 311 313 314 314 317 314 314 315 316 318 319 319 319 324 330 320 320 322 327 324 323
302 304 307 306 307 306 307 307 307 307 308 308 309 309 308 304 307 306 306 307 308 308 309 310 310 309 309 310 311 310 311 315 312 318 314 317 315 316 317 318 318 318 318 318 318 319 319

GFSGBSN_925_thetae_048.txt.gz
Theta_e
309 309 309 305 302 301 301 302 303 303 302 302 302 302 302 301 301 301 302 304 306 307 308 307 315 318 314 317 315 321 322 322 316 320 319 318 317 319 328 336 342 350 351 351 349 347 348
309 309 308 306 303 303 303 303 303 302 302 302 302 302 302 301 301 301 303 305 307 308 310 309 317 316 315 317 315 319 319 323 318 323 319 317 317 318 327 329 341 345 348 347 349 345 347
308 308 307 304 303 303 303 303 302 302 301 302 302 301 302 302 302 302 304 308 309 309 311 310 318 317 317 315 315 320 322 323 321 320 318 317 317 322 325 331 331 335 342 346 348 347 349
306 305 304 303 302 302 302 302 302 301 302 302 302 302 302 302 302 302 306 310 311 310 312 312 320 318 318 314 315 317 318 324 325 319 317 318 317 319 321 322 323 336 338 347 350 349 350
305 304 304 302 301 302 302 302 301 302 302 302 302 303 303 303 303 303 307 311 309 314 321 318 320 319 321 318 322 324 319 324 323 321 317 318 317 319 321 321 321 331 337 341 349 349 351
304 303 303 302 302 302 302 301 301 301 301 301 302 303 304 305 304 303 310 310 307 318 322 320 322 321 317 320 315 315 323 323 320 318 318 317 315 317 319 318 325 331 339 339 342 349 350
303 302 302 301 302 301 301 301 301 302 303 303 304 304 304 306 305 306 310 309 304 303 311 306 306 320 313 310 310 316 318 323 322 320 319 318 318 320 320 320 322 330 335 338 340 342 350
303 302 301 301 301 301 301 303 304 303 303 302 303 303 304 306 305 308 309 306 306 307 303 306 307 307 307 308 309 311 317 322 320 324 321 323 322 320 324 322 322 325 329 336 339 339 342
302 302 301 301 301 302 303 304 303 302 301 301 302 302 303 307 305 307 309 309 309 308 303 306 308 308 308 308 309 310 313 319 322 320 324 324 327 325 326 326 324 325 327 329 339 338 337
302 302 302 302 303 303 303 303 302 301 302 302 302 302 303 306 306 308 309 308 308 307 304 309 311 311 309 310 311 314 313 317 322 321 319 324 325 327 328 327 326 326 326 328 334 338 340
302 302 302 303 303 303 303 302 301 301 301 302 301 303 305 307 308 308 308 309 309 306 307 313 308 309 307 307 309 314 313 316 320 321 319 322 326 327 328 328 328 327 327 328 332 336 337
302 302 303 303 303 303 302 301 301 301 301 301 301 302 308 308 307 308 309 309 306 307 312 310 307 307 306 306 308 311 312 313 318 320 321 322 324 326 328 329 330 329 330 331 331 332 338
301 302 302 302 303 302 302 301 301 301 301 301 301 303 311 309 307 310 311 304 306 308 308 308 305 305 305 307 308 310 311 312 316 323 322 322 322 325 329 330 330 330 329 334 333 334 335
301 301 302 302 302 302 302 301 301 301 301 301 301 307 311 312 312 312 311 304 310 310 307 306 305 304 306 309 309 309 311 311 318 319 321 321 322 323 326 330 332 330 329 331 337 332 331
301 301 301 301 302 302 301 301 301 301 301 300 301 309 312 311 311 311 303 306 308 309 307 307 304 304 305 306 309 310 310 313 315 317 319 320 321 326 327 328 330 330 330 324 322 322 325
301 301 301 301 301 301 301 301 302 301 301 300 303 308 310 310 311 309 304 308 308 309 307 306 307 304 304 305 308 310 310 311 311 315 315 318 321 322 327 327 329 328 325 327 318 328 324
301 301 301 301 301 301 301 301 302 301 300 300 305 305 311 309 310 303 305 307 308 307 307 308 308 306 306 306 307 307 309 308 313 315 314 314 316 322 322 322 330 325 327 325 324 318 325
300 300 301 301 301 301 301 301 302 300 302 302 304 306 310 309 306 304 307 308 309 309 308 308 308 308 308 306 309 309 312 312 311 315 315 315 319 323 323 322 321 332 321 321 323 320 318
300 300 300 300 301 301 301 301 302 300 303 305 303 304 309 307 305 306 306 309 309 310 310 308 308 307 306 307 309 312 311 310 312 314 316 315 322 323 323 320 320 321 328 320 317 317 319
300 300 300 300 300 300 300 302 304 304 304 305 303 306 303 302 302 306 307 309 310 310 310 309 308 306 307 307 308 310 311 312 311 310 312 315 319 320 324 323 321 322 323 322 321 321 321
300 300 299 300 302 304 304 305 305 305 305 305 302 304 304 305 305 305 306 307 310 310 308 308 309 308 308 308 307 309 310 309 308 311 312 313 317 314 315 317 320 322 327 325 321 321 323
300 299 301 303 304 304 306 306 306 306 305 306 304 305 301 303 305 306 307 309 311 311 310 310 310 309 309 306 307 307 307 308 309 309 310 310 313 312 313 321 325 327 331 330 324 323 323
300 301 304 303 304 306 306 306 306 306 306 306 306 306 305 307 307 308 308 309 309 309 310 310 309 310 309 307 305 304 306 307 309 310 310 311 310 311 319 326 330 332 326 331 326 323 322
302 304 303 303 305 307 307 306 306 306 306 306 306 307 305 308 308 309 308 309 311 310 311 310 309 309 309 307 307 304 304 305 306 308 309 311 311 310 317 323 334 327 322 323 329 328 328
304 302 302 303 306 307 306 306 306 306 306 307 307 306 305 306 307 308 309 310 309 308 310 309 309 308 307 306 305 306 307 308 309 308 308 310 313 310 321 329 331 327 323 322 322 326 322
302 302 302 304 307 307 307 307 307 307 307 307 307 308 303 306 307 307 309 308 310 310 310 308 307 306 307 306 306 312 315 318 318 317 309 311 313 311 316 331 335 324 322 321 325 325 320
301 302 303 307 307 306 307 307 307 307 307 307 308 308 304 305 305 306 309 309 308 309 310 309 308 307 307 310 312 315 318 316 319 320 315 314 316 316 318 331 329 319 320 322 328 327 319
302 304 307 306 306 307 306 307 307 307 307 308 308 309 307 305 305 306 307 309 309 310 311 309 307 306 305 309 312 312 314 314 314 315 316 318 320 318 319 327 329 316 319 321 316 316 317
304 306 307 307 307 307 307 307 308 308 308 309 309 309 308 306 307 307 307 307 307 307 308 309 308 307 306 307 307 309 311 312 312 316 311 315 313 316 315 319 316 314 318 316 313 314 313